Change the Weather History Date:

Sunday, October 28, 2012

  Actual Average (KISN) Record (KISN)
Temperature  
Mean Temperature 28 °F 38 °F  
Max Temperature 32 °F 50 °F 80 °F (1937)
Min Temperature 24 °F 25 °F 2 °F (1925)
Degree Days  
Heating Degree Days 37 28  
Month to date heating degree days 597  
Since 1 July heating degree days 943  
Cooling Degree Days 0 0  
Month to date cooling degree days 0  
Year to date cooling degree days 455  
Moisture  
Dew Point 27 °F    
Average Humidity 91    
Maximum Humidity 100    
Minimum Humidity 80    
Precipitation  
Precipitation 0.06 in 0.03 in 0.21 in (1929)
Month to date precipitation 0.84  
Year to date precipitation 13.02  
Sea Level Pressure  
Sea Level Pressure 30.05 in    
Wind  
Wind Speed 9 mph (SE)    
Max Wind Speed 18 mph    
Max Gust Speed 24 mph    
Visibility 8 miles    
Events Rain , Snow    
T = Trace of Precipitation, MM = Missing Value Source: NWS Daily Summary

Daily Weather History Graph

Daily Weather History Graph

Search for Another Location

Airport or City:

Trip Planner

Search our weather history database for the weather conditions in past years. The results will help you decide how hot, cold, wet, or windy it might be!

Date:

Astronomy

Oct. 28, 2012 Rise Set
Actual Time 8:32 AM CDT 6:40 PM CDT
Civil Twilight 8:00 AM CDT 7:12 PM CDT
Nautical Twilight 7:23 AM CDT 7:48 PM CDT
Astronomical Twilight 6:47 AM CDT 8:24 PM CDT
Moon 5:59 PM CDT (10/28) 7:25 AM CDT (10/28)
Length of Visible Light 11h 12m
Length of Day
10h 08m
Waxing Gibbous, 99% of the Moon is Illuminated
Oct 28
Waxing Gibbous
Oct 29
Full
Nov 6
Last Quarter
Nov 13
New
Nov 20
First Quarter

Hourly Weather History & Observations

Time (CDT) Temp. Windchill Dew Point Humidity Pressure Visibility Wind Dir Wind Speed Gust Speed Precip Events Conditions
12:15 AM 26.6 °F 21.2 °F 24.8 °F 93% 30.19 in 10.0 mi ESE 4.6 mph - N/A   Overcast
12:55 AM 26.6 °F 20.0 °F 24.8 °F 93% 30.19 in 10.0 mi SE 5.8 mph - N/A   Overcast
1:15 AM 26.6 °F 19.1 °F 23.0 °F 86% 30.18 in 10.0 mi SE 6.9 mph - N/A   Overcast
1:35 AM 24.8 °F 19.1 °F 23.0 °F 93% 30.18 in 10.0 mi SE 4.6 mph - N/A   Mostly Cloudy
1:55 AM 24.8 °F 19.1 °F 23.0 °F 93% 30.18 in 10.0 mi SE 4.6 mph - N/A   Overcast
2:15 AM 24.8 °F 19.1 °F 23.0 °F 93% 30.18 in 10.0 mi SE 4.6 mph - N/A   Overcast
2:35 AM 24.8 °F 20.5 °F 23.0 °F 93% 30.17 in 10.0 mi SE 3.5 mph - N/A   Overcast
2:55 AM 24.8 °F - 23.0 °F 93% 30.17 in 10.0 mi Calm Calm - N/A   Overcast
3:15 AM 24.8 °F 17.9 °F 21.2 °F 86% 30.17 in 10.0 mi East 5.8 mph - N/A   Overcast
3:35 AM 24.8 °F 16.1 °F 21.2 °F 86% 30.16 in 10.0 mi ESE 8.1 mph - N/A   Overcast
3:55 AM 24.8 °F 15.3 °F 21.2 °F 86% 30.16 in 10.0 mi ESE 9.2 mph - N/A   Mostly Cloudy
4:15 AM 24.8 °F 14.6 °F 21.2 °F 86% 30.15 in 10.0 mi ESE 10.4 mph - N/A   Mostly Cloudy
4:35 AM 24.8 °F 16.1 °F 21.2 °F 86% 30.14 in 10.0 mi ESE 8.1 mph - N/A   Overcast
4:55 AM 24.8 °F 13.4 °F 21.2 °F 86% 30.14 in 10.0 mi ESE 12.7 mph - N/A   Overcast
5:15 AM 24.8 °F 14.0 °F 21.2 °F 86% 30.14 in 10.0 mi ESE 11.5 mph - N/A   Overcast
5:35 AM 24.8 °F 15.3 °F 21.2 °F 86% 30.14 in 10.0 mi SE 9.2 mph - N/A   Overcast
5:55 AM 24.8 °F 12.9 °F 21.2 °F 86% 30.13 in 10.0 mi ESE 13.8 mph - N/A   Overcast
6:15 AM 24.8 °F 12.4 °F 21.2 °F 86% 30.12 in 10.0 mi ESE 15.0 mph 21.9 mph N/A   Overcast
6:35 AM 24.8 °F 14.0 °F 19.4 °F 80% 30.12 in 10.0 mi ESE 11.5 mph 16.1 mph N/A   Overcast
6:55 AM 26.6 °F 21.2 °F 21.2 °F 80% 30.09 in 10.0 mi North 4.6 mph 18.4 mph N/A   Overcast
7:15 AM 26.6 °F 15.2 °F 23.0 °F 86% 30.10 in 10.0 mi ESE 13.8 mph 20.7 mph N/A   Overcast
7:35 AM 26.6 °F 15.2 °F 23.0 °F 86% 30.08 in 10.0 mi ESE 13.8 mph - N/A   Unknown
7:55 AM 26.6 °F 15.2 °F 23.0 °F 86% 30.08 in 10.0 mi ESE 13.8 mph - N/A   Overcast
8:35 AM 26.6 °F 15.7 °F 23.0 °F 86% 30.08 in 10.0 mi ESE 12.7 mph 19.6 mph N/A   Overcast
8:55 AM 26.6 °F 16.8 °F 23.0 °F 86% 30.08 in 10.0 mi SE 10.4 mph - N/A   Overcast
9:15 AM 26.6 °F 15.2 °F 24.8 °F 93% 30.08 in 10.0 mi SE 13.8 mph - N/A   Overcast
9:35 AM 26.6 °F 14.3 °F 24.8 °F 93% 30.08 in 10.0 mi SE 16.1 mph 19.6 mph N/A   Overcast
9:55 AM 26.6 °F 15.2 °F 24.8 °F 93% 30.07 in 10.0 mi SE 13.8 mph 19.6 mph N/A   Overcast
10:15 AM 26.6 °F 15.2 °F 24.8 °F 93% 30.06 in 10.0 mi ESE 13.8 mph 19.6 mph N/A   Overcast
10:35 AM 28.4 °F 16.6 °F 24.8 °F 86% 30.07 in 5.0 mi ESE 16.1 mph 19.6 mph N/A Rain Light Freezing Rain
10:55 AM 28.4 °F 16.2 °F 24.8 °F 86% 30.06 in 8.0 mi SE 17.3 mph - N/A   Overcast
11:35 AM 28.4 °F 16.6 °F 26.6 °F 93% 30.04 in 5.0 mi ESE 16.1 mph - N/A   Overcast
11:55 AM 28.4 °F 18.5 °F 26.6 °F 93% 30.04 in 4.0 mi ESE 11.5 mph 19.6 mph N/A Rain Light Freezing Rain
12:15 PM 28.4 °F 18.0 °F 26.6 °F 93% 30.03 in 3.0 mi ESE 12.7 mph - N/A Snow Light Snow
12:35 PM 28.4 °F 17.0 °F 26.6 °F 93% 30.02 in 2.5 mi ESE 15.0 mph 18.4 mph 0.01 in Snow Light Snow
12:55 PM 30.2 °F 20.2 °F 28.4 °F 93% 30.01 in 4.0 mi ESE 12.7 mph - 0.02 in Snow Light Snow
1:15 PM 30.2 °F 19.3 °F 28.4 °F 93% 29.99 in 4.0 mi ESE 15.0 mph 20.7 mph N/A Snow Light Snow
1:35 PM 32.0 °F 20.8 °F 28.4 °F 87% 29.98 in 3.0 mi ESE 17.3 mph - 0.01 in Snow Light Snow
1:55 PM 32.0 °F 20.5 °F 28.4 °F 87% 29.97 in 7.0 mi ESE 18.4 mph 24.2 mph 0.01 in Rain Light Rain
2:15 PM 32.0 °F 22.1 °F 28.4 °F 87% 29.98 in 10.0 mi SE 13.8 mph - N/A   Mostly Cloudy
2:35 PM 32.0 °F 23.6 °F 28.4 °F 87% 29.98 in 10.0 mi SE 10.4 mph - N/A   Overcast
2:55 PM 32.0 °F 20.8 °F 28.4 °F 87% 29.97 in 10.0 mi SE 17.3 mph - N/A   Overcast
3:15 PM 32.0 °F 22.1 °F 28.4 °F 87% 29.97 in 10.0 mi SE 13.8 mph - N/A   Overcast
3:35 PM 32.0 °F 22.1 °F 30.2 °F 93% 29.97 in 10.0 mi SE 13.8 mph 18.4 mph N/A   Overcast
3:55 PM 32.0 °F 22.5 °F 28.4 °F 87% 29.97 in 10.0 mi SE 12.7 mph 20.7 mph N/A   Overcast
4:15 PM 32.0 °F 22.5 °F 28.4 °F 87% 29.97 in 10.0 mi SE 12.7 mph 19.6 mph N/A   Overcast
4:35 PM 32.0 °F 23.6 °F 30.2 °F 93% 29.96 in 10.0 mi SE 10.4 mph 18.4 mph N/A   Overcast
4:55 PM 32.0 °F 23.0 °F 30.2 °F 93% 29.95 in 10.0 mi SE 11.5 mph 20.7 mph N/A   Overcast
5:15 PM 32.0 °F 22.5 °F 30.2 °F 93% 29.96 in 10.0 mi SE 12.7 mph 19.6 mph N/A   Overcast
5:35 PM 32.0 °F 23.6 °F 30.2 °F 93% 29.96 in 10.0 mi SSE 10.4 mph - N/A   Overcast
5:55 PM 32.0 °F 23.0 °F 30.2 °F 93% 29.96 in 10.0 mi SSE 11.5 mph 16.1 mph N/A   Overcast
6:15 PM 32.0 °F 24.8 °F 30.2 °F 93% 29.97 in 5.0 mi SE 8.1 mph - N/A Snow Light Snow
6:35 PM 32.0 °F 23.6 °F 32.0 °F 100% 29.96 in 3.0 mi SE 10.4 mph - 0.02 in Snow Light Snow
6:55 PM 32.0 °F 24.2 °F 32.0 °F 100% 29.96 in 5.0 mi SE 9.2 mph - 0.03 in Snow Light Snow
7:15 PM 32.0 °F 24.8 °F 32.0 °F 100% 29.96 in 7.0 mi SE 8.1 mph - N/A   Overcast
7:55 PM 32.0 °F 24.2 °F 32.0 °F 100% 29.95 in 5.0 mi SE 9.2 mph - N/A   Overcast
8:15 PM 32.0 °F 23.6 °F 32.0 °F 100% 29.96 in 5.0 mi SE 10.4 mph - N/A   Overcast
8:35 PM 32.0 °F 24.8 °F 32.0 °F 100% 29.96 in 4.0 mi SE 8.1 mph - N/A   Overcast
8:55 PM 32.0 °F 25.6 °F 32.0 °F 100% 29.96 in 5.0 mi SE 6.9 mph - N/A   Overcast
9:15 PM 32.0 °F 26.4 °F 32.0 °F 100% 29.96 in 7.0 mi SE 5.8 mph - N/A   Overcast
10:15 PM 32.0 °F 26.4 °F 32.0 °F 100% 29.96 in 10.0 mi ESE 5.8 mph - N/A   Overcast
10:35 PM 32.0 °F 25.6 °F 32.0 °F 100% 29.96 in 10.0 mi ESE 6.9 mph - N/A   Overcast
10:55 PM 32.0 °F 24.2 °F 32.0 °F 100% 29.95 in 8.0 mi ESE 9.2 mph - N/A   Overcast
11:15 PM 32.0 °F 23.6 °F 32.0 °F 100% 29.96 in 8.0 mi SE 10.4 mph - N/A   Overcast
11:35 PM 32.0 °F 23.6 °F 32.0 °F 100% 29.96 in 8.0 mi SE 10.4 mph - N/A   Overcast
11:55 PM 32.0 °F 24.2 °F 32.0 °F 100% 29.95 in 8.0 mi SE 9.2 mph - N/A   Overcast